Flag for Canada Weather past 2 weeks in Iqaluit, Nunavut Territory, Canada

Now
41 °F

Passing clouds.


Feels Like: 41 °F
Forecast: 34 / 46 °F
Wind: 2 mph from North

Location: Iqaluit

Current Time: Sep 2, 2014 at 1:52:06 AM

Latest Report: Sep 2, 2014 at 1:00 AM


Visibility: 15 mi

Pressure: 29.80 "Hg

Humidity: 81%

Dew point: 36 °F

Location of IqaluitLocation

Historic Weather in Iqaluit — Graph

°F

Iqaluit temperature yesterday

Maximum temperature yesterday: 52 °F (at 1:00 PM)
Minimum temperature yesterday: 43 °F (at 4:00 AM)
Average temperature yesterday: 47 °F

Past Weeks' High & Low Weather Summary

 TemperatureHumidityPressure
High55 °F (Aug 20, 2:00 PM)100% (Aug 18, 1:00 AM)30.34 "Hg (Aug 18, 1:00 AM)
Low34 °F (Aug 28, 4:00 AM)54% (Sep 1, 1:00 PM)29.34 "Hg (Aug 30, 3:00 PM)
Average43 °F85%29.89 "Hg
* Reported Midnight between Aug 17 and Aug 18 — Midnight between Sep 1 and Sep 2, Iqaluit, Weather by CustomWeather, © 2014

Note: Actual official high and low records may vary slightly from our data, if they occured in-between our weather recording intervals... More about our weather records

Advertising

Iqaluit weather history for previous 24 hours

 ConditionsComfort  
Time TempWeatherWind HumidityBarometerVisibility
12:00 AM
Sep 2
41 °FPassing clouds.3 mph87%29.82 "Hg15 mi
11:00 PM
Sep 1
45 °FPassing clouds.3 mph76%29.83 "Hg15 mi
10:00 PM46 °FPassing clouds.No wind71%29.82 "Hg15 mi
9:00 PM46 °FPassing clouds.5 mph71%29.82 "Hg15 mi
8:00 PM46 °FPassing clouds.6 mph71%29.81 "Hg30 mi
7:00 PM46 °FPassing clouds.8 mph71%29.80 "Hg30 mi
6:00 PM50 °FScattered clouds.8 mph62%29.80 "Hg30 mi
5:00 PM52 °FPartly sunny.8 mph58%29.80 "Hg30 mi
4:00 PM50 °FPartly sunny.6 mph62%29.80 "Hg30 mi
3:00 PM50 °FScattered clouds.7 mph62%29.78 "Hg30 mi
2:00 PM52 °FScattered clouds.3 mph58%29.77 "Hg30 mi
1:00 PM52 °FPartly sunny.5 mph54%29.77 "Hg30 mi
12:00 PM50 °FScattered clouds.3 mph58%29.78 "Hg30 mi
11:00 AM48 °FPartly sunny.7 mph62%29.79 "Hg30 mi
10:00 AM45 °FPartly sunny.2 mph87%29.79 "Hg30 mi
9:00 AM43 °FPartly sunny.2 mph87%29.77 "Hg30 mi
8:00 AM45 °FPartly sunny.3 mph87%29.76 "Hg30 mi
7:00 AM45 °FOvercast.5 mph87%29.75 "Hg30 mi
6:00 AM43 °FPartly sunny.6 mph87%29.74 "Hg30 mi
5:00 AM43 °FOvercast.5 mph87%29.72 "Hg20 mi
4:00 AM43 °FPassing clouds.5 mph87%29.71 "Hg15 mi
3:00 AM45 °FOvercast.7 mph87%29.70 "Hg15 mi
2:00 AM45 °FOvercast.7 mph87%29.68 "Hg15 mi
1:00 AM45 °FOvercast.6 mph87%29.66 "Hg15 mi
Weather by CustomWeather, © 2014

See weather overviewHow to use our weather pages